Location: Vancouver
(49.2500°N, 123.1330°W)
Time: 05:37:55
(UTC-07:00)

BREEZE-M DEB (TANK) - Visible Passes

Search period start: 26 May 2016 00:00
Search period end: 05 June 2016 00:00
Orbit: 265 x 13363 km, 49.6° (Epoch: 25 May)

Date Brightness Start Highest point End Pass type
(mag) Time Alt. Az. Time Alt. Az. Time Alt. Az.
26 May 6.4 02:29:58 10° SSE 02:30:42 10° SSE 02:31:24 10° SE visible
27 May 5.4 03:35:16 10° SSW 03:42:46 19° SSE 03:46:28 10° ESE visible
30 May 5.8 02:47:47 13° S 02:52:51 17° SSE 02:57:00 10° ESE visible
31 May 4.6 03:55:35 11° SSW 04:04:23 29° SSE 04:07:56 10° E visible
02 Jun 6.0 01:59:41 15° SSE 02:02:23 16° SSE 02:06:54 10° ESE visible
03 Jun 5.1 03:07:15 15° SSW 03:14:07 26° SSE 03:18:16 10° E visible
04 Jun 3.7 04:15:57 10° SW 04:25:03 41° SSE 04:28:14 10° E visible
